DW8463 Weather Reports


time (UTC)temp
C
wind
direction
speed
KPH
gust
KPH
rain 1hr
cm
rain 24hr
cm
rain mn
cm
humidity
%
barometer
mb
20260904154803 29 58 1.6 4.8 0.00 0.00 0.00 80 1008.7
20260904154304 29 143 3.2 4.8 0.00 0.00 0.00 80 1008.8
20260904153803 29 90 1.6 4.8 0.00 0.00 0.00 80 1008.8
20260904153303 30 90 3.2 4.8 0.00 0.00 0.00 80 1008.8
20260904152803 28 252 0.0 3.2 0.00 0.00 0.00 80 1008.7
20260904152306 28 248 0.0 1.6 0.00 0.00 0.00 80 1008.8
20260904151804 28 213 0.0 4.8 0.00 0.00 0.00 80 1009.0
20260904151303 28 211 3.2 8.0 0.00 0.00 0.00 80 1009.0
20260904145803 28 0 1.6 8.0 0.00 0.00 0.00 86 1008.9
20260904145305 28 344 4.8 4.8 0.00 0.00 0.00 86 1008.9
20260904144303 27 220 3.2 4.8 0.00 0.00 0.00 86 1008.9
20260904143803 27 290 1.6 4.8 0.00 0.00 0.00 86 1008.8
20260904143303 27 329 1.6 4.8 0.00 0.00 0.00 86 1008.7
20260904142804 27 272 3.2 12.9 0.00 0.00 0.00 86 1008.7
20260904142306 27 270 3.2 4.8 0.00 0.00 0.00 86 1008.7
20260904141803 27 272 1.6 9.7 0.00 0.00 0.00 86 1008.7
20260904141304 26 248 1.6 4.8 0.00 0.00 0.00 86 1008.7
20260904140803 26 303 3.2 8.0 0.00 0.00 0.00 86 1008.6
20260904140303 26 215 1.6 8.0 0.00 0.00 0.00 86 1008.7
20260904135306 26 249 0.0 1.6 0.00 0.00 0.00 94 1008.8
20260904134804 25 246 1.6 4.8 0.00 0.00 0.00 94 1008.6
20260904134303 25 219 0.0 0.0 0.00 0.00 0.00 94 1008.7
20260904133303 24 190 0.0 0.0 0.00 0.00 0.00 94 1008.7
20260904132803 23 190 0.0 0.0 0.00 0.00 0.00 94 1008.7
20260904132306 23 190 0.0 0.0 0.00 0.00 0.00 94 1008.7
20260904131803 23 190 0.0 0.0 0.00 0.00 0.00 94 1008.6
20260904131303 23 190 0.0 0.0 0.00 0.00 0.00 94 1008.5
20260904130803 22 190 0.0 0.0 0.00 0.00 0.00 94 1008.4
20260904125803 22 190 0.0 0.0 0.00 0.00 0.00 98 1008.4
20260904125305 22 171 0.0 0.0 0.00 0.03 0.00 98 1008.4
20260904124803 21 117 0.0 0.0 0.00 0.03 0.00 98 1008.3
20260904124303 21 117 0.0 0.0 0.00 0.03 0.00 98 1008.2
20260904123803 21 117 0.0 0.0 0.00 0.03 0.00 98 1008.1
20260904123303 21 117 0.0 0.0 0.00 0.03 0.00 98 1008.1
20260904122306 21 0 0.0 0.0 0.00 0.03 0.00 98 1008.1
20260904121803 21 0 0.0 0.0 0.00 0.03 0.00 98 1008.0
20260904121303 21 0 0.0 0.0 0.00 0.03 0.00 98 1008.1
20260904120804 20 0 0.0 0.0 0.00 0.03 0.00 98 1008.0
20260904120303 20 0 0.0 0.0 0.00 0.05 0.00 98 1008.0
20260904115803 21 0 0.0 0.0 0.00 0.05 0.00 97 1008.0
20260904114303 21 0 0.0 0.0 0.00 0.05 0.00 97 1008.0
20260904113803 21 0 0.0 0.0 0.00 0.05 0.00 97 1007.9
20260904113303 21 0 0.0 0.0 0.00 0.05 0.00 97 1007.9
20260904112803 21 0 0.0 0.0 0.00 0.05 0.00 97 1007.9
20260904112305 21 0 0.0 0.0 0.00 0.05 0.00 97 1007.9
20260904111303 21 0 0.0 0.0 0.00 0.05 0.00 97 1007.7
20260904110803 21 0 0.0 0.0 0.00 0.05 0.00 97 1007.7
20260904110303 21 0 0.0 0.0 0.00 0.05 0.00 97 1007.7
20260904105803 21 0 0.0 0.0 0.00 0.05 0.00 97 1007.7
20260904105305 21 0 0.0 0.0 0.00 0.05 0.00 97 1007.6
20260904104803 21 0 0.0 0.0 0.00 0.05 0.00 97 1007.6
20260904103803 21 0 0.0 0.0 0.00 0.05 0.00 97 1007.7
20260904103303 21 0 0.0 0.0 0.00 0.05 0.00 97 1007.7
20260904102803 21 0 0.0 0.0 0.00 0.05 0.00 97 1007.7
20260904102306 21 0 0.0 0.0 0.00 0.05 0.00 97 1007.7
20260904101303 21 0 0.0 0.0 0.00 0.05 0.00 97 1007.8
20260904100303 21 0 0.0 0.0 0.00 0.05 0.00 97 1007.7
20260904095803 21 0 0.0 0.0 0.00 0.05 0.00 96 1007.7
20260904095306 21 0 0.0 0.0 0.00 0.05 0.00 96 1007.7
20260904094803 21 0 0.0 0.0 0.00 0.05 0.00 96 1007.7
20260904094303 21 0 0.0 0.0 0.00 0.05 0.00 96 1007.7
20260904093803 21 0 0.0 0.0 0.00 0.05 0.00 96 1007.7
20260904093303 21 0 0.0 0.0 0.00 0.05 0.00 96 1007.7
20260904092306 21 0 0.0 0.0 0.00 0.05 0.00 96 1007.6
20260904091803 21 0 0.0 0.0 0.00 0.05 0.00 96 1007.5
20260904091303 21 0 0.0 0.0 0.00 0.05 0.00 96 1007.4
20260904090303 21 0 0.0 0.0 0.00 0.05 0.00 96 1007.4
20260904085803 21 0 0.0 0.0 0.00 0.05 0.00 89 1007.4
20260904085305 21 0 0.0 0.0 0.00 0.05 0.00 89 1007.3
20260904084803 21 0 0.0 0.0 0.00 0.05 0.00 89 1007.2
20260904084303 21 0 0.0 0.0 0.00 0.05 0.00 89 1007.1
20260904083804 21 0 0.0 0.0 0.00 0.05 0.00 89 1007.1
20260904083303 21 0 0.0 0.0 0.00 0.05 0.00 89 1007.0
20260904082305 21 0 0.0 0.0 0.00 0.05 0.00 89 1007.0
20260904081803 21 0 0.0 0.0 0.00 0.05 0.00 89 1007.1
20260904081303 21 0 0.0 0.0 0.00 0.05 0.00 89 1007.0
20260904080803 22 0 0.0 0.0 0.00 0.05 0.00 89 1007.1
20260904080303 22 0 0.0 0.0 0.00 0.05 0.00 89 1007.0
20260904075803 22 0 0.0 0.0 0.00 0.05 0.00 90 1007.0
20260904075306 22 0 0.0 0.0 0.00 0.05 0.00 90 1007.0
20260904074803 22 0 0.0 0.0 0.00 0.05 0.00 90 1007.1
20260904073803 22 0 0.0 0.0 0.00 0.05 0.00 90 1007.2
20260904073303 22 341 0.0 0.0 0.00 0.05 0.00 90 1007.3
20260904072803 22 351 0.0 0.0 0.00 0.05 0.00 90 1007.3
20260904072306 22 195 0.0 0.0 0.00 0.05 0.00 90 1007.3
20260904071803 22 179 0.0 0.0 0.00 0.05 0.00 90 1007.4
20260904070803 22 206 0.0 0.0 0.00 0.05 0.00 90 1007.4
20260904070303 22 197 0.0 0.0 0.00 0.05 0.00 92 1007.4
20260904065803 22 196 0.0 0.0 0.00 0.05 0.00 100 1007.5
20260904064803 22 189 0.0 0.0 0.00 0.05 0.00 100 1007.6
20260904064302 22 189 0.0 0.0 0.00 0.05 0.00 100 1007.6
20260904063303 22 190 0.0 0.0 0.00 0.05 0.00 100 1007.7
20260904062803 22 188 0.0 0.0 0.00 0.05 0.00 100 1007.6
20260904062306 22 182 0.0 0.0 0.00 0.05 0.00 100 1007.6
20260904061803 23 103 0.0 0.0 0.00 0.05 0.00 100 1007.6
20260904061303 23 117 0.0 0.0 0.00 0.05 0.00 100 1007.6
20260904060803 23 117 0.0 0.0 0.00 0.05 0.00 100 1007.6
20260904060303 23 117 0.0 0.0 0.00 0.05 0.00 100 1007.6
20260904055803 23 117 0.0 0.0 0.00 0.05 0.00 100 1007.5
20260904055306 23 117 0.0 3.2 0.00 0.05 0.00 100 1007.5
20260904054803 23 117 0.0 1.6 0.00 0.05 0.00 100 1007.6
20260904054303 23 117 0.0 4.8 0.00 0.05 0.00 100 1007.6
20260904053803 23 172 1.6 3.2 0.00 0.05 0.00 100 1007.6
20260904053303 23 128 1.6 4.8 0.00 0.05 0.00 100 1007.6
20260904052803 23 128 0.0 3.2 0.00 0.05 0.00 100 1007.6
20260904052306 23 128 0.0 1.6 0.00 0.05 0.00 100 1007.6
20260904051803 23 127 1.6 4.8 0.00 0.05 0.00 100 1007.6
20260904051304 23 59 0.0 4.8 0.00 0.05 0.00 100 1007.6
20260904050810 23 81 1.6 4.8 0.00 0.05 0.00 100 1007.6
20260904045803 23 124 0.0 3.2 0.00 0.05 0.05 100 1007.5
20260904045306 23 124 3.2 4.8 0.00 0.05 0.05 100 1007.5
20260904044803 23 124 1.6 4.8 0.00 0.05 0.05 100 1007.6
20260904044303 23 124 1.6 4.8 0.00 0.05 0.05 100 1007.6
20260904043803 23 124 0.0 1.6 0.00 0.05 0.05 100 1007.6
20260904043303 23 124 0.0 0.0 0.00 0.05 0.05 100 1007.6
20260904042803 23 124 0.0 0.0 0.00 0.05 0.05 100 1007.7
20260904042306 23 124 0.0 3.2 0.00 0.05 0.05 100 1007.6
20260904041803 23 124 0.0 0.0 0.00 0.05 0.05 100 1007.6
20260904041303 23 124 0.0 3.2 0.00 0.05 0.05 100 1007.6
20260904040803 23 124 1.6 3.2 0.00 0.05 0.05 100 1007.6
20260904040303 23 124 0.0 4.8 0.00 0.05 0.05 100 1007.6
20260904035803 23 124 3.2 4.8 0.00 0.05 0.05 100 1007.6
20260904035306 23 124 0.0 3.2 0.00 0.05 0.05 100 1007.7
20260904034803 23 124 1.6 3.2 0.00 0.05 0.05 100 1007.7
20260904033803 24 124 1.6 4.8 0.00 0.05 0.05 100 1007.7
20260904033304 24 124 1.6 4.8 0.00 0.05 0.05 100 1007.6
20260904032803 24 124 1.6 4.8 0.00 0.05 0.05 100 1007.6
20260904032305 24 124 1.6 4.8 0.00 0.05 0.05 100 1007.6
20260904031803 25 91 1.6 8.0 0.00 0.05 0.05 100 1007.6
20260904031304 25 133 4.8 4.8 0.00 0.05 0.05 100 1007.7
20260904030803 25 135 3.2 4.8 0.00 0.05 0.05 100 1007.7
20260904030303 25 135 1.6 4.8 0.00 0.05 0.05 100 1007.7
20260904025804 25 135 1.6 3.2 0.00 0.05 0.05 93 1007.6
20260904024803 25 135 0.0 4.8 0.00 0.05 0.05 93 1007.5
20260904024303 25 168 3.2 12.9 0.00 0.05 0.05 93 1007.4
20260904023803 25 142 0.0 4.8 0.00 0.05 0.05 93 1007.5
20260904023303 25 105 0.0 4.8 0.00 0.05 0.05 93 1007.5
20260904022803 25 151 1.6 8.0 0.00 0.05 0.05 93 1007.4
20260904021303 25 173 0.0 3.2 0.00 0.05 0.05 93 1007.5
20260904020803 25 123 1.6 3.2 0.00 0.05 0.05 93 1007.5
20260904020303 25 117 0.0 4.8 0.00 0.05 0.05 93 1007.5
20260904015803 25 134 1.6 3.2 0.00 0.05 0.05 97 1007.4
20260904015306 25 140 0.0 4.8 0.00 0.05 0.05 97 1007.4
20260904014803 25 140 1.6 4.8 0.00 0.05 0.05 97 1007.4
20260904014303 25 150 1.6 3.2 0.00 0.05 0.05 97 1007.3
20260904013803 26 179 1.6 8.0 0.00 0.05 0.05 97 1007.3
20260904013303 26 142 1.6 9.7 0.00 0.05 0.05 97 1007.3
20260904012803 26 224 0.0 4.8 0.00 0.05 0.05 97 1007.1
20260904012306 26 162 3.2 9.7 0.00 0.05 0.05 97 1006.9
20260904011803 26 137 3.2 12.9 0.00 0.05 0.05 97 1007.0
20260904010803 26 162 1.6 4.8 0.00 0.05 0.05 97 1007.0
20260904010303 26 160 4.8 14.5 0.00 0.05 0.05 95 1007.0
20260904005803 26 147 1.6 4.8 0.00 0.05 0.05 85 1007.1
20260904005306 26 154 1.6 4.8 0.00 0.05 0.05 85 1007.2
20260904004803 26 158 1.6 9.7 0.00 0.05 0.05 85 1007.2
20260904004303 26 139 1.6 8.0 0.00 0.05 0.05 85 1007.2
20260904003804 26 138 3.2 14.5 0.00 0.05 0.05 85 1007.2
20260904003303 27 143 4.8 16.1 0.00 0.05 0.05 85 1007.1
20260904002803 27 127 4.8 16.1 0.00 0.05 0.05 85 1007.2
20260904002306 27 152 4.8 11.3 0.00 0.05 0.05 85 1007.2
20260904001803 27 124 8.0 12.9 0.00 0.05 0.05 85 1007.2
20260904001303 27 170 1.6 11.3 0.00 0.05 0.05 85 1007.3
20260904000803 27 242 4.8 14.5 0.00 0.05 0.05 85 1007.3
20260904000303 27 144 4.8 11.3 0.00 0.05 0.05 85 1007.1
20260903235803 27 149 6.4 14.5 0.00 0.05 0.05 76 1007.1
20260903235305 27 178 8.0 16.1 0.00 0.05 0.05 76 1006.9
20260903234803 27 155 9.7 16.1 0.00 0.05 0.05 76 1006.9
20260903233804 27 191 3.2 12.9 0.00 0.05 0.05 76 1006.8
20260903233303 27 159 8.0 16.1 0.00 0.05 0.05 76 1006.8
20260903231303 28 154 4.8 12.9 0.00 0.05 0.05 76 1006.8
20260903230303 28 137 9.7 20.9 0.00 0.05 0.05 76 1006.8
20260903225803 28 151 4.8 19.3 0.00 0.05 0.05 75 1006.7
20260903225306 28 145 6.4 16.1 0.00 0.05 0.05 75 1006.6
20260903224303 28 140 11.3 24.1 0.00 0.05 0.05 75 1006.6
20260903223803 28 147 9.7 24.1 0.00 0.05 0.05 75 1006.7
20260903223304 28 164 3.2 12.9 0.00 0.05 0.05 75 1006.7
20260903222803 28 141 6.4 16.1 0.00 0.05 0.05 75 1006.8
20260903222305 28 123 8.0 12.9 0.00 0.05 0.05 75 1006.8
20260903221804 28 152 4.8 19.3 0.00 0.05 0.05 75 1007.1
20260903221303 29 150 8.0 16.1 0.00 0.05 0.05 75 1007.1
20260903220803 28 151 6.4 19.3 0.00 0.05 0.05 75 1007.1
20260903220303 28 159 9.7 19.3 0.00 0.05 0.05 75 1007.2
20260903215803 28 167 8.0 19.3 0.00 0.05 0.05 72 1007.1
20260903215306 28 164 8.0 22.5 0.00 0.05 0.05 72 1007.1
20260903214803 28 111 12.9 22.5 0.00 0.05 0.05 72 1007.0
20260903214303 29 142 8.0 19.3 0.00 0.05 0.05 72 1007.0
20260903213803 29 156 9.7 19.3 0.00 0.05 0.05 72 1007.0
20260903213303 29 144 11.3 20.9 0.00 0.05 0.05 72 1007.0
20260903211803 30 156 9.7 19.3 0.00 0.05 0.05 72 1006.9
20260903210803 30 173 9.7 20.9 0.00 0.05 0.05 72 1007.2
20260903210303 29 166 9.7 22.5 0.00 0.05 0.05 72 1007.1
20260903205803 30 162 11.3 20.9 0.00 0.05 0.05 72 1007.2
20260903205306 29 147 6.4 19.3 0.00 0.05 0.05 72 1007.3
20260903204303 30 154 8.0 22.5 0.00 0.05 0.05 72 1007.2
20260903203803 30 168 8.0 19.3 0.00 0.05 0.05 72 1007.2
20260903202803 29 126 9.7 19.3 0.00 0.05 0.05 72 1007.2
20260903202306 29 147 9.7 24.1 0.00 0.05 0.05 72 1007.1
20260903201803 29 126 11.3 27.4 0.00 0.05 0.05 72 1007.3
20260903201303 29 154 9.7 19.3 0.00 0.05 0.05 72 1007.5
20260903200803 29 148 8.0 32.2 0.00 0.05 0.05 72 1007.7
20260903195803 30 144 8.0 22.5 0.00 0.05 0.05 67 1007.5
20260903194803 29 128 4.8 12.9 0.00 0.05 0.05 67 1007.7
20260903194303 28 113 8.0 19.3 0.00 0.05 0.05 67 1007.8
20260903193803 28 163 11.3 20.9 0.00 0.05 0.05 67 1007.7
20260903193303 28 124 9.7 22.5 0.00 0.05 0.05 67 1007.6
20260903192804 28 127 14.5 24.1 0.00 0.05 0.05 67 1007.6
20260903192306 28 126 9.7 19.3 0.00 0.05 0.05 67 1007.7
20260903191803 28 137 11.3 20.9 0.00 0.05 0.05 67 1007.9
20260903191303 29 118 11.3 25.7 0.00 0.05 0.05 67 1008.0
20260903190803 28 156 9.7 19.3 0.00 0.05 0.05 67 1007.9
20260903190303 29 149 12.9 20.9 0.00 0.05 0.05 67 1007.9
20260903185803 29 162 8.0 19.3 0.00 0.05 0.05 71 1008.0
20260903185306 29 130 8.0 22.5 0.00 0.05 0.05 71 1008.0
20260903184803 28 115 8.0 16.1 0.00 0.05 0.05 71 1008.1
20260903184303 28 151 11.3 20.9 0.00 0.05 0.05 71 1008.2
20260903183803 28 126 9.7 19.3 0.00 0.05 0.05 71 1008.4
20260903183303 28 122 8.0 20.9 0.00 0.05 0.05 71 1008.6
20260903182803 28 144 8.0 22.5 0.00 0.05 0.05 71 1008.7
20260903182306 28 138 9.7 25.7 0.00 0.05 0.05 71 1008.6
20260903181803 28 138 12.9 19.3 0.00 0.05 0.05 71 1008.8
20260903181304 28 136 4.8 19.3 0.00 0.05 0.05 71 1008.8
20260903180804 28 149 4.8 12.9 0.00 0.05 0.05 71 1008.7
20260903180303 28 155 9.7 20.9 0.00 0.05 0.05 71 1008.7
20260903175804 28 172 9.7 16.1 0.00 0.05 0.05 70 1008.6
20260903175306 28 182 4.8 14.5 0.00 0.05 0.05 70 1008.5
20260903174803 29 163 9.7 14.5 0.00 0.05 0.05 70 1008.5
20260903174303 29 172 4.8 14.5 0.00 0.05 0.05 70 1008.6
20260903173303 29 121 8.0 16.1 0.00 0.05 0.05 70 1008.6
20260903172803 28 167 3.2 12.9 0.00 0.05 0.05 70 1008.6
20260903172306 28 117 6.4 16.1 0.00 0.05 0.05 70 1008.5
20260903171803 28 102 4.8 12.9 0.00 0.05 0.05 70 1008.5
20260903171304 28 119 6.4 12.9 0.00 0.05 0.05 70 1008.4
20260903170803 28 128 4.8 11.3 0.00 0.05 0.05 70 1008.4
20260903170303 28 118 4.8 12.9 0.00 0.05 0.05 73 1008.5
20260903165803 27 146 1.6 8.0 0.00 0.05 0.05 84 1008.5
20260903165305 27 134 3.2 4.8 0.00 0.05 0.05 84 1008.7
20260903164803 27 163 4.8 8.0 0.00 0.05 0.05 84 1008.7
20260903164304 27 132 1.6 4.8 0.00 0.05 0.05 84 1008.6
20260903163804 27 123 0.0 8.0 0.00 0.05 0.05 84 1008.6
20260903163303 27 95 0.0 3.2 0.00 0.05 0.05 84 1008.5
20260903162804 27 123 1.6 4.8 0.00 0.05 0.05 84 1008.6
20260903162306 26 135 1.6 4.8 0.00 0.05 0.05 84 1008.5
20260903161803 26 140 1.6 14.5 0.00 0.05 0.05 84 1008.5
20260903161303 26 161 8.0 14.5 0.00 0.05 0.05 84 1008.4
20260903160803 26 154 4.8 12.9 0.00 0.05 0.05 84 1008.4
20260903160303 26 113 3.2 9.7 0.00 0.05 0.05 87 1008.5
20260903155803 26 169 1.6 8.0 0.00 0.05 0.05 98 1008.4
20260903155306 25 122 3.2 12.9 0.00 0.05 0.05 98 1008.4